DW8081 Weather Reports


Display with metric or nautical units.
time (UTC)temp
F
wind
direction
speed
MPH
gust
MPH
rain 1hr
in
rain 24hr
in
rain mn
in
humidity
%
barometer
mb
20240621011352 78 119 0.0 1.0 0.00 0.00 0.00 100 1017.1
20240621010352 78 115 0.0 0.0 0.00 0.00 0.00 100 1017.0
20240621005352 79 115 0.0 1.0 0.00 0.00 0.00 100 1016.8
20240621004352 79 115 0.0 0.0 0.00 0.00 0.00 100 1016.6
20240621003352 79 115 0.0 1.0 0.00 0.00 0.00 100 1016.4
20240621002352 79 185 0.0 1.0 0.00 0.00 0.00 100 1016.4
20240621001352 80 193 0.0 5.0 0.00 0.00 0.00 100 1016.4
20240621000354 80 211 0.0 1.0 0.00 0.00 0.00 100 1016.0
20240620235352 81 211 0.0 3.0 0.00 0.00 0.00 100 1016.1
20240620234352 81 211 0.0 6.0 0.00 0.00 0.00 100 1016.0
20240620233354 82 234 0.0 4.0 0.00 0.00 0.00 100 1016.0
20240620232353 82 209 3.0 6.0 0.00 0.00 0.00 100 1016.0
20240620231352 83 208 2.0 5.0 0.00 0.00 0.00 100 1016.0
20240620230354 83 208 0.0 7.0 0.00 0.00 0.00 100 1015.9
20240620225352 84 177 0.0 4.0 0.00 0.00 0.00 100 1015.9
20240620224352 84 200 0.0 4.0 0.00 0.00 0.00 100 1015.8
20240620223352 84 176 3.0 7.0 0.00 0.00 0.00 100 1015.8
20240620222352 85 178 1.0 7.0 0.00 0.00 0.00 100 1015.9
20240620221352 85 198 2.0 7.0 0.00 0.00 0.00 100 1015.9
20240620220352 86 211 0.0 7.0 0.00 0.00 0.00 100 1016.0
20240620215354 86 187 0.0 6.0 0.00 0.00 0.00 100 1016.1
20240620214352 86 182 0.0 4.0 0.00 0.00 0.00 100 1016.2
20240620213353 87 160 0.0 4.0 0.00 0.00 0.00 100 1016.3
20240620212359 87 199 0.0 5.0 0.00 0.00 0.00 100 1016.4
20240620211353 88 191 0.0 5.0 0.00 0.00 0.00 100 1016.5
20240620210359 89 213 0.0 7.0 0.00 0.00 0.00 100 1016.5
20240620205354 90 176 0.0 1.0 0.00 0.00 0.00 100 1016.5
20240620204359 90 183 1.0 5.0 0.00 0.00 0.00 100 1016.6
20240620203359 90 146 3.0 4.0 0.00 0.00 0.00 100 1016.7
20240620202353 91 173 0.0 3.0 0.00 0.00 0.00 100 1016.8
20240620201353 91 205 3.0 5.0 0.00 0.00 0.00 100 1016.9
20240620200353 91 225 0.0 9.0 0.00 0.00 0.00 100 1017.0
20240620195353 91 194 0.0 6.0 0.00 0.00 0.00 100 1017.0
20240620194354 91 204 0.0 7.0 0.00 0.00 0.00 100 1017.0
20240620193353 91 212 2.0 5.0 0.00 0.00 0.00 100 1017.1
20240620192353 90 205 1.0 5.0 0.00 0.00 0.00 100 1017.3
20240620191353 92 211 7.0 7.0 0.00 0.00 0.00 100 1017.4
20240620190354 93 173 0.0 1.0 0.00 0.00 0.00 100 1017.5
20240620185353 93 169 0.0 1.0 0.00 0.00 0.00 100 1017.6
20240620184353 92 169 0.0 3.0 0.00 0.00 0.00 100 1017.7
20240620183354 92 200 3.0 4.0 0.00 0.00 0.00 100 1017.8
20240620182353 92 192 0.0 3.0 0.00 0.00 0.00 100 1017.9
20240620181359 91 192 0.0 4.0 0.00 0.00 0.00 100 1018.0
20240620180354 90 179 0.0 6.0 0.00 0.00 0.00 100 1018.1
20240620175359 90 119 1.0 6.0 0.00 0.00 0.00 100 1018.2
20240620174353 90 162 0.0 4.0 0.00 0.00 0.00 100 1018.3
20240620173353 90 211 3.0 7.0 0.00 0.00 0.00 100 1018.4
20240620172353 91 209 0.0 3.0 0.00 0.00 0.00 100 1018.5
20240620171354 91 209 0.0 6.0 0.00 0.00 0.00 100 1018.6
20240620170353 90 188 0.0 3.0 0.00 0.00 0.00 100 1018.7
20240620165355 91 190 0.0 3.0 0.00 0.00 0.00 100 1018.9
20240620164353 90 185 0.0 2.0 0.00 0.00 0.00 100 1019.2
20240620163353 88 182 0.0 2.0 0.00 0.00 0.00 100 1019.3
20240620162359 88 206 0.0 2.0 0.00 0.00 0.00 100 1019.2
20240620161353 87 206 0.0 2.0 0.00 0.00 0.00 100 1019.3
20240620160354 86 206 0.0 3.0 0.00 0.00 0.00 100 1019.4
20240620155355 86 206 0.0 1.0 0.00 0.00 0.00 100 1019.4
20240620154354 85 206 0.0 7.0 0.00 0.00 0.00 100 1019.5
20240620153354 84 166 1.0 3.0 0.00 0.00 0.00 100 1019.5
20240620152354 83 167 0.0 6.0 0.00 0.00 0.00 100 1019.5
20240620151353 82 188 0.0 5.0 0.00 0.00 0.00 100 1019.5
20240620150354 83 196 0.0 4.0 0.00 0.00 0.00 100 1019.5
20240620145400 83 176 0.0 5.0 0.00 0.00 0.00 100 1019.3
20240620144354 82 159 0.0 2.0 0.00 0.00 0.00 100 1019.3
20240620143354 82 161 0.0 3.0 0.00 0.00 0.00 100 1019.3
20240620142354 81 176 0.0 4.0 0.00 0.00 0.00 100 1019.3
20240620141354 81 176 0.0 1.0 0.00 0.00 0.00 100 1019.3
20240620140355 80 176 0.0 5.0 0.00 0.00 0.00 100 1019.3
20240620135354 80 197 0.0 3.0 0.00 0.00 0.00 100 1019.3
20240620134441 79 213 0.0 4.0 0.00 0.00 0.00 100 1019.4
20240620133354 78 213 0.0 6.0 0.00 0.00 0.00 100 1019.3
20240620132354 78 212 0.0 5.0 0.00 0.00 0.00 100 1019.4
20240620131354 77 216 2.0 5.0 0.00 0.00 0.00 100 1019.3
20240620130354 76 215 0.0 0.0 0.00 0.00 0.00 100 1019.3
20240620125354 76 215 0.0 3.0 0.00 0.00 0.00 100 1019.3
20240620124354 75 215 0.0 1.0 0.00 0.00 0.00 100 1019.3
20240620123354 74 215 0.0 1.0 0.00 0.00 0.00 100 1019.3
20240620122354 74 215 0.0 4.0 0.00 0.00 0.00 100 1019.3
20240620121354 73 216 1.0 4.0 0.00 0.00 0.00 100 1019.3
20240620120354 72 226 0.0 1.0 0.00 0.00 0.00 100 1019.3
20240620115354 72 226 0.0 2.0 0.00 0.00 0.00 100 1019.3
20240620114354 71 226 0.0 1.0 0.00 0.00 0.00 100 1019.3
20240620113354 71 226 0.0 1.0 0.00 0.00 0.00 100 1019.4
20240620112354 70 226 0.0 1.0 0.00 0.00 0.00 100 1019.4
20240620111355 70 226 0.0 1.0 0.00 0.00 0.00 100 1019.3
20240620110354 70 226 0.0 1.0 0.00 0.00 0.00 100 1019.3
20240620105356 70 226 0.0 1.0 0.00 0.00 0.00 100 1019.3
20240620104355 69 226 0.0 1.0 0.00 0.00 0.00 100 1019.3
20240620103356 69 226 0.0 1.0 0.00 0.00 0.00 100 1019.3
20240620102400 69 217 0.0 2.0 0.00 0.00 0.00 100 1019.3
20240620101354 69 225 0.0 1.0 0.00 0.00 0.00 100 1019.3
20240620100400 69 225 0.0 1.0 0.00 0.00 0.00 100 1019.3
20240620095356 69 217 0.0 1.0 0.00 0.00 0.00 100 1019.1
20240620094354 69 205 0.0 1.0 0.00 0.00 0.00 100 1019.0
20240620093355 69 193 0.0 2.0 0.00 0.00 0.00 100 1019.1
20240620092401 69 190 0.0 1.0 0.00 0.00 0.00 100 1019.0
20240620091355 69 178 0.0 1.0 0.00 0.00 0.00 100 1018.9
20240620090355 69 178 0.0 1.0 0.00 0.00 0.00 100 1019.0
20240620085355 69 178 0.0 0.0 0.00 0.00 0.00 100 1019.1
20240620084355 69 178 0.0 1.0 0.00 0.00 0.00 100 1019.0
20240620083356 69 178 0.0 1.0 0.00 0.00 0.00 100 1019.0
20240620082354 69 178 0.0 0.0 0.00 0.00 0.00 100 1019.0
20240620081355 69 178 0.0 3.0 0.00 0.00 0.00 100 1019.0
20240620080356 69 178 0.0 1.0 0.00 0.00 0.00 100 1019.1
20240620075355 69 178 0.0 1.0 0.00 0.00 0.00 100 1019.2
20240620074356 69 178 0.0 1.0 0.00 0.00 0.00 100 1019.2
20240620073355 69 178 0.0 1.0 0.00 0.00 0.00 100 1019.3
20240620072356 70 178 0.0 1.0 0.00 0.00 0.00 100 1019.2
20240620071355 70 178 0.0 0.0 0.00 0.00 0.00 100 1019.2
20240620070355 70 178 0.0 1.0 0.00 0.00 0.00 100 1019.3
20240620065355 70 178 0.0 1.0 0.00 0.00 0.00 100 1019.2
20240620064355 70 178 0.0 0.0 0.00 0.00 0.00 100 1019.2
20240620063355 70 178 0.0 0.0 0.00 0.00 0.00 100 1019.2
20240620062355 70 178 0.0 1.0 0.00 0.00 0.00 100 1019.2
20240620061355 70 178 0.0 2.0 0.00 0.00 0.00 100 1019.2
20240620060356 70 178 0.0 0.0 0.00 0.00 0.00 100 1019.4
20240620055356 71 178 0.0 1.0 0.00 0.00 0.00 100 1019.4
20240620054355 71 178 0.0 0.0 0.00 0.00 0.00 100 1019.5
20240620053355 71 178 0.0 0.0 0.00 0.00 0.00 100 1019.6
20240620052356 71 178 0.0 1.0 0.00 0.00 0.00 100 1019.6
20240620051355 71 178 0.0 1.0 0.00 0.00 0.00 100 1019.6
20240620050356 71 178 0.0 1.0 0.00 0.00 0.00 100 1019.6
20240620045355 71 178 0.0 1.0 0.00 0.00 0.00 100 1019.6
20240620044355 72 178 0.0 1.0 0.00 0.00 0.00 100 1019.7
20240620043355 72 178 0.0 0.0 0.00 0.00 0.00 100 1019.8
20240620042355 72 178 0.0 1.0 0.00 0.00 0.00 100 1019.8
20240620041355 72 178 0.0 1.0 0.00 0.00 0.00 100 1019.9
20240620040356 72 178 0.0 1.0 0.00 0.00 0.00 100 1020.0
20240620035401 72 178 0.0 0.0 0.00 0.00 0.00 100 1020.1
20240620034356 73 178 0.0 0.0 0.00 0.00 0.00 100 1020.1
20240620033356 73 178 0.0 0.0 0.00 0.00 0.00 100 1020.2
20240620032356 73 178 0.0 0.0 0.00 0.00 0.00 100 1020.2
20240620031355 73 178 0.0 0.0 0.00 0.00 0.00 100 1020.2
20240620030355 74 178 0.0 1.0 0.00 0.00 0.00 100 1020.2
20240620025356 74 178 0.0 1.0 0.00 0.00 0.00 100 1020.2
20240620024357 74 178 0.0 1.0 0.00 0.00 0.00 100 1020.2
20240620023357 74 179 0.0 6.0 0.00 0.00 0.00 100 1020.1
20240620022356 74 152 0.0 1.0 0.00 0.00 0.00 100 1020.3
20240620021357 74 153 0.0 4.0 0.00 0.00 0.00 100 1020.2
20240620020356 74 175 2.0 4.0 0.00 0.00 0.00 100 1020.2
20240620015357 74 173 2.0 4.0 0.00 0.00 0.00 100 1020.1
20240620014357 74 171 2.0 2.0 0.00 0.00 0.00 100 1020.0
20240620013356 74 171 0.0 4.0 0.00 0.00 0.00 100 1019.9
20240620012356 74 150 0.0 0.0 0.00 0.00 0.00 100 1020.0